TimeCDT,TemperatureF,Dew PointF,Humidity,Sea Level PressureIn,VisibilityMPH,Wind Direction,Wind SpeedMPH,Gust SpeedMPH,PrecipitationIn,Events,Conditions,WindDirDegrees,DateUTC
12:15 AM,66.2,59.0,78,29.95,10.0,North,8.1,-,N/A,,Unknown,350,2013-09-21 05:15:00
12:35 AM,66.2,59.0,78,29.96,10.0,North,6.9,-,N/A,,Unknown,360,2013-09-21 05:35:00
12:55 AM,66.2,59.0,78,29.96,10.0,NNE,4.6,-,N/A,,Unknown,20,2013-09-21 05:55:00
1:15 AM,62.6,59.0,88,29.96,10.0,Calm,Calm,-,N/A,,Unknown,0,2013-09-21 06:15:00
1:35 AM,64.4,59.0,83,29.96,10.0,Calm,Calm,-,N/A,,Unknown,0,2013-09-21 06:35:00
1:55 AM,64.4,57.2,77,29.96,10.0,Calm,Calm,-,N/A,,Unknown,0,2013-09-21 06:55:00
2:15 AM,64.4,57.2,77,29.96,10.0,North,5.8,-,N/A,,Unknown,350,2013-09-21 07:15:00
2:35 AM,62.6,57.2,82,29.95,10.0,NNW,9.2,-,N/A,,Unknown,340,2013-09-21 07:35:00
2:55 AM,62.6,55.4,77,29.95,10.0,North,5.8,-,N/A,,Unknown,350,2013-09-21 07:55:00
3:15 AM,62.6,55.4,77,29.95,10.0,Calm,Calm,-,N/A,,Unknown,0,2013-09-21 08:15:00
3:35 AM,60.8,57.2,88,29.95,10.0,Calm,Calm,-,N/A,,Unknown,0,2013-09-21 08:35:00
3:55 AM,60.8,59.0,94,29.96,10.0,Calm,Calm,-,N/A,,Unknown,0,2013-09-21 08:55:00
4:15 AM,59.0,57.2,94,29.96,10.0,Calm,Calm,-,N/A,,Unknown,0,2013-09-21 09:15:00
4:35 AM,59.0,55.4,88,29.96,10.0,Calm,Calm,-,N/A,,Unknown,0,2013-09-21 09:35:00
4:55 AM,60.8,55.4,82,29.96,10.0,North,6.9,-,N/A,,Unknown,360,2013-09-21 09:55:00
5:15 AM,60.8,53.6,77,29.97,10.0,North,3.5,-,N/A,,Unknown,10,2013-09-21 10:15:00
5:35 AM,60.8,55.4,82,29.97,10.0,Calm,Calm,-,N/A,,Unknown,0,2013-09-21 10:35:00
5:55 AM,59.0,55.4,88,29.98,10.0,Calm,Calm,-,N/A,,Unknown,0,2013-09-21 10:55:00
6:15 AM,57.2,55.4,94,29.98,10.0,Calm,Calm,-,N/A,,Unknown,0,2013-09-21 11:15:00
6:35 AM,55.4,53.6,94,29.98,10.0,Calm,Calm,-,N/A,,Unknown,0,2013-09-21 11:35:00
6:55 AM,55.4,53.6,94,29.99,10.0,Calm,Calm,-,N/A,,Unknown,0,2013-09-21 11:55:00
7:15 AM,55.4,53.6,94,29.99,10.0,Calm,Calm,-,N/A,,Unknown,0,2013-09-21 12:15:00
7:35 AM,55.4,53.6,94,29.99,10.0,Calm,Calm,-,N/A,,Unknown,0,2013-09-21 12:35:00
7:55 AM,57.2,55.4,94,30.00,10.0,Calm,Calm,-,N/A,,Unknown,0,2013-09-21 12:55:00
8:15 AM,59.0,55.4,88,30.01,10.0,Calm,Calm,-,N/A,,Unknown,0,2013-09-21 13:15:00
8:35 AM,60.8,55.4,82,30.01,10.0,Calm,Calm,-,N/A,,Unknown,0,2013-09-21 13:35:00
8:55 AM,60.8,55.4,82,30.01,10.0,Calm,Calm,-,N/A,,Unknown,0,2013-09-21 13:55:00
9:15 AM,62.6,55.4,77,30.01,10.0,Calm,Calm,-,N/A,,Unknown,0,2013-09-21 14:15:00
9:35 AM,64.4,55.4,73,30.01,10.0,Calm,Calm,-,N/A,,Unknown,0,2013-09-21 14:35:00
9:55 AM,66.2,55.4,68,30.02,10.0,Calm,Calm,-,N/A,,Unknown,0,2013-09-21 14:55:00
10:15 AM,68.0,57.2,68,30.02,10.0,North,3.5,-,N/A,,Unknown,10,2013-09-21 15:15:00
10:35 AM,71.6,59.0,64,30.02,10.0,North,6.9,-,N/A,,Unknown,360,2013-09-21 15:35:00
10:55 AM,71.6,57.2,60,30.02,10.0,North,6.9,-,N/A,,Unknown,10,2013-09-21 15:55:00
11:15 AM,71.6,55.4,57,30.02,10.0,NNE,6.9,-,N/A,,Unknown,30,2013-09-21 16:15:00
11:35 AM,71.6,57.2,60,30.02,10.0,North,4.6,-,N/A,,Unknown,360,2013-09-21 16:35:00
11:55 AM,71.6,55.4,57,30.01,10.0,NNE,3.5,-,N/A,,Unknown,20,2013-09-21 16:55:00
12:15 PM,73.4,55.4,53,30.01,10.0,Calm,Calm,-,N/A,,Unknown,0,2013-09-21 17:15:00
12:35 PM,73.4,55.4,53,30.00,10.0,NNE,4.6,-,N/A,,Unknown,20,2013-09-21 17:35:00
12:55 PM,75.2,57.2,53,29.99,10.0,Calm,Calm,-,N/A,,Unknown,0,2013-09-21 17:55:00
1:15 PM,77.0,59.0,54,29.98,10.0,NNE,6.9,-,N/A,,Unknown,20,2013-09-21 18:15:00
1:35 PM,77.0,53.6,44,29.97,10.0,ENE,6.9,-,N/A,,Unknown,70,2013-09-21 18:35:00
1:55 PM,77.0,55.4,47,29.96,10.0,North,5.8,-,N/A,,Unknown,350,2013-09-21 18:55:00
2:15 PM,78.8,53.6,42,29.95,10.0,North,5.8,-,N/A,,Unknown,350,2013-09-21 19:15:00
2:35 PM,78.8,51.8,39,29.95,10.0,North,10.4,-,N/A,,Unknown,350,2013-09-21 19:35:00
2:55 PM,78.8,51.8,39,29.94,10.0,NNE,6.9,-,N/A,,Unknown,30,2013-09-21 19:55:00
3:15 PM,80.6,53.6,39,29.93,10.0,North,4.6,-,N/A,,Unknown,350,2013-09-21 20:15:00
3:35 PM,80.6,53.6,39,29.92,10.0,NNE,8.1,-,N/A,,Unknown,20,2013-09-21 20:35:00
3:55 PM,80.6,51.8,37,29.91,10.0,NNE,4.6,-,N/A,,Unknown,30,2013-09-21 20:55:00
4:15 PM,80.6,51.8,37,29.91,10.0,NNE,6.9,-,N/A,,Unknown,20,2013-09-21 21:15:00
4:35 PM,80.6,51.8,37,29.91,10.0,NNE,4.6,-,N/A,,Unknown,20,2013-09-21 21:35:00
4:55 PM,80.6,50.0,34,29.90,10.0,North,8.1,-,N/A,,Unknown,360,2013-09-21 21:55:00
5:15 PM,80.6,50.0,34,29.90,10.0,NNE,4.6,-,N/A,,Unknown,30,2013-09-21 22:15:00
5:35 PM,80.6,50.0,34,29.90,10.0,North,8.1,-,N/A,,Unknown,360,2013-09-21 22:35:00
5:55 PM,80.6,48.2,32,29.90,10.0,NNE,8.1,-,N/A,,Unknown,20,2013-09-21 22:55:00
6:15 PM,78.8,48.2,34,29.90,10.0,NNE,6.9,-,N/A,,Unknown,20,2013-09-21 23:15:00
6:35 PM,78.8,50.0,36,29.90,10.0,Calm,Calm,-,N/A,,Unknown,0,2013-09-21 23:35:00
6:55 PM,77.0,50.0,39,29.90,10.0,Calm,Calm,-,N/A,,Unknown,0,2013-09-21 23:55:00
7:15 PM,77.0,51.8,41,29.90,10.0,Calm,Calm,-,N/A,,Unknown,0,2013-09-22 00:15:00
7:35 PM,71.6,53.6,53,29.90,10.0,Calm,Calm,-,N/A,,Unknown,0,2013-09-22 00:35:00
7:55 PM,68.0,55.4,64,29.90,10.0,Calm,Calm,-,N/A,,Unknown,0,2013-09-22 00:55:00
8:15 PM,64.4,57.2,77,29.90,10.0,Calm,Calm,-,N/A,,Unknown,0,2013-09-22 01:15:00
8:35 PM,62.6,55.4,77,29.91,10.0,Calm,Calm,-,N/A,,Unknown,0,2013-09-22 01:35:00
8:55 PM,62.6,55.4,77,29.92,10.0,Calm,Calm,-,N/A,,Unknown,0,2013-09-22 01:55:00
9:15 PM,60.8,55.4,82,29.92,10.0,Calm,Calm,-,N/A,,Unknown,0,2013-09-22 02:15:00
9:35 PM,59.0,55.4,88,29.93,10.0,Calm,Calm,-,N/A,,Unknown,0,2013-09-22 02:35:00
9:55 PM,60.8,57.2,88,29.93,10.0,Calm,Calm,-,N/A,,Unknown,0,2013-09-22 02:55:00
10:15 PM,59.0,55.4,88,29.93,10.0,Calm,Calm,-,N/A,,Unknown,0,2013-09-22 03:15:00
10:35 PM,59.0,55.4,88,29.93,10.0,Calm,Calm,-,N/A,,Unknown,0,2013-09-22 03:35:00
10:55 PM,55.4,53.6,94,29.93,10.0,Calm,Calm,-,N/A,,Unknown,0,2013-09-22 03:55:00
11:15 PM,55.4,53.6,94,29.93,10.0,Calm,Calm,-,N/A,,Unknown,0,2013-09-22 04:15:00
11:35 PM,55.4,53.6,94,29.93,10.0,Calm,Calm,-,N/A,,Unknown,0,2013-09-22 04:35:00
11:55 PM,55.4,53.6,94,29.93,10.0,Calm,Calm,-,N/A,,Unknown,0,2013-09-22 04:55:00